Location: Arbon
(43.0005°N, 0.7472°E)
Time: 02:14:02
(UTC+00:00)

Cosmos 1943 - Pass Details

Date: 07 August 2020
Orbit: 834 x 849 km, 71.0° (Epoch: 19 September)

Event Time Altitude Azimuth Distance (km) Brightness Sun altitude
Rises 03:05:25 0° 339° (NNW) 3,391 6.7 -17.4°
Reaches altitude 10° 03:07:58 10° 345° (NNW) 2,454 6.0 -17.1°
Maximum altitude 03:13:23 48° 60° (ENE) 1,089 4.2 -16.3°
Drops below altitude 10° 03:18:47 10° 134° (SE) 2,443 5.7 -15.6°
Sets 03:21:18 0° 140° (SE) 3,375 6.3 -15.3°
